Simultaneous Nadir Overpasses (SNOs) Predictions

Prediction of SNOs between GOES-15 and NPP Satellite Orbit:

Table of predicted SNOs for the next 14.0 days since TLE Epoch: 5/19/2017
Index Date Time (GOES-15) GOES-15 Lat,Lon NPP Lat,Lon Distance(km) Time Diff (sec)
1 05/20/2017 22:27:27 -0.05,-134.95 -0.28,-135.90 108.54 80
2 05/21/2017 22:11:23 -0.06,-134.91 0.74,-131.37 403.91 80
3 05/23/2017 10:30:30 0.04,-134.79 0.47,-136.63 210.65 80
4 05/24/2017 10:14:25 0.05,-134.74 -0.55,-132.10 301.11 80
5 05/25/2017 22:33:42 -0.03,-134.73 -0.63,-137.40 304.61 80
6 05/26/2017 22:17:37 -0.04,-134.68 0.39,-132.87 206.86 80
7 05/28/2017 10:36:44 0.02,-134.55 0.82,-138.14 408.75 80
8 05/29/2017 10:20:39 0.03,-134.50 -0.15,-133.59 102.29 80
9 05/31/2017 22:23:51 -0.02,-134.42 -0.01,-134.37 6.32 80




NCC Satellite Simultaneous Nadir Overpasses (SNOs) Prediction Service
